Weather Roundup
Issued by NWS

Home | Current Version | Previous Version | Text Only | Print | Product List | Glossary On
Versions: 1 2 3 4 5 6 7 8 9 10 11 12 13 14 15 16 17 18 19 20 21 22 23 24 25 26 27 28 29 30 31 32 33 34 35 36 37 38 39 40 41 42 43 44 45 46 47 48 49 50
000
NZUS93 KARX 290359
HRRWXR

CURRENT HOURLY OBSERVATIONS ACROSS
MUCH OF THE UPPER MISSISSIPPI VALLEY
NATIONAL WEATHER SERVICE LA CROSSE WI
1100 PM CDT SUN AUG 28 2016


...SOUTHEAST MINNESOTA...


CITY           SKY/WX    TMP DP  RH WIND       PRES   REMARKS
ROCHESTER      CLEAR     71  70  96 SE8       30.17S
ROCHESTER/MAYO FAIR      72  72  98 SE8       30.17S
WINONA         CLOUDY    70  68  94 SE3       30.17S
AUSTIN         PTCLDY    72  68  88 SE5       30.16S
ALBERT LEA     PTCLDY    73  72  94 SE3       30.15F
DODGE CENTER   PTCLDY    70  66  88 SE7       30.17S
PRESTON        PTCLDY    71  67  90 SE3       30.19S
OWATONNA       PTCLDY    73  68  83 SE5       30.15S
FARIBAULT      CLOUDY    73  70  88 SE6       30.15S
$$

...ELSEWHERE IN MINNESOTA...


CITY           SKY/WX    TMP DP  RH WIND       PRES   REMARKS
MINNEAPOLIS    PTCLDY    74  67  78 SE8       30.13R
INTNL FALLS    LGT RAIN  65  63  93 SE17G23   30.04F
DULUTH         PTCLDY    63  62  97 SE7       30.17S
RED WING       CLOUDY    73  70  88 SE7       30.14S
REDWOOD FALLS  CLEAR     74  68  81 S13       30.08S
MANKATO        CLOUDY    73  68  83 SE9       30.12F
WORTHINGTON    PTCLDY    72  67  84 S8        30.13S
FAIRMONT       PTCLDY    71  68  90 S7        30.13F
$$

...SOUTHWEST WISCONSIN...


CITY           SKY/WX    TMP DP  RH WIND       PRES   REMARKS
LA CROSSE      CLOUDY    73  70  90 E6        30.16S
PRAIRIE DU CHI CLOUDY    74  70  87 CALM      30.17S
BOSCOBEL       CLOUDY    72  70  93 CALM      30.19R FOG
LONE ROCK      NOT AVBL
PLATTEVILLE    PTCLDY    71  70  99 SE3       30.21R
FORT MC COY    CLEAR     64  63  99 CALM      30.19S
CAMP DOUGLAS   CLOUDY    64  63  99 S1        30.20R
MAUSTON-NEW LI CLOUDY    66  65  99 CALM      30.19S
VIROQUA        FAIR      69  69 100 SE5       30.20S
WIS DELLS      NOT AVBL
$$

...ELSEWHERE IN WISCONSIN...


CITY           SKY/WX    TMP DP  RH WIND       PRES   REMARKS
MILWAUKEE      CLOUDY    68  66  93 NE5       30.23R
MADISON        MOCLDY    71  67  87 SE6       30.20S
GREEN BAY      CLEAR     64  64 100 CALM      30.22S
EAU CLAIRE     NOT AVBL
BLACK RVR FLS  FAIR      64  64 100 CALM      30.18S FOG
MEDFORD        CLEAR     61  61 100 CALM      30.22S
WAUSAU         CLEAR     66  64  93 CALM      30.21R
WIS RAPIDS     CLEAR     65  64  97 CALM      30.22S
MARSHFIELD     CLEAR     65  62  90 CALM      30.21R
RICE LAKE      CLEAR     67  64  89 SE3       30.19R
$$

...NORTHEAST IOWA...


CITY           SKY/WX    TMP DP  RH WIND       PRES   REMARKS
WATERLOO       PTCLDY    73  67  81 SE13      30.16R
DUBUQUE        CLOUDY    69  67  93 MISG      30.21R
DECORAH        CLOUDY    72  72 100 SE6       30.18R
MASON CITY     CLOUDY    74  71  91 S9        30.18R
CHARLES CITY   CLOUDY    73  73 100 SE8       30.18S
OELWEIN        PTCLDY    70  68  94 S7        30.19S
$$

...ELSEWHERE IN IOWA...


CITY           SKY/WX    TMP DP  RH WIND       PRES   REMARKS
DES MOINES     CLOUDY    75  67  76 E7        30.15R
IOWA CITY      CLOUDY    72  68  87 CALM      30.17S
FORT DODGE     PTCLDY    70  64  83 SE6       30.17R
MARSHALLTOWN   CLEAR     73  69  87 SE8       30.16S
CEDAR RAPIDS   MOCLDY    69  69 100 S3        30.16F
$$

...NORTHERN ILLINOIS...


CITY           SKY/WX    TMP DP  RH WIND       PRES   REMARKS
CHICAGO-OHARE  MOCLDY    73  68  84 E6        30.22R
CHICAGO-MIDWAY MOCLDY    75  69  81 E7        30.22R
MOLINE         CLOUDY    73  69  87 E6        30.19R
ROCKFORD       MOCLDY    73  68  84 E5        30.23R
PEORIA         CLEAR     73  71  93 E12       30.19R
$$

NOTE: "FAIR" INDICATES FEW OR NO CLOUDS BELOW 12,000 FEET WITH NO
SIGNIFICANT WEATHER AND/OR OBSTRUCTIONS TO VISIBILITY. WIND
SPEEDS ARE IN MILES-PER-HOUR.




USA.gov is the U.S. government's official web portal to all federal, state and local government web resources and services.